KAZEOSAT 1

Last updated on Tue Sep 16 2025 00:02:30 GMT+0000 (Coordinated Universal Time)

1 39731U 14024A 25258.59997904 .00000153 00000+0 59744-4 0 9999 2 39731 98.3525 332.4441 0001098 91.4005 268.7310 14.42036432598980
UTC large
Height (km)
Speed (km/s)
/
Latitude / Longitude
Inclination (degrees)
Orbital Period (minutes)
Azimuth
Elevation
Range (km)
Doppler Factor

Next 0 passes for location: London (51.5072 / 0.1276)

Sorry there are no passes over London.